Regional Weather Roundup
Issued by NWS

Home | Current Version | Previous Version | Text Only | Print | Product List | Glossary Off
Versions: 1 2 3 4 5 6 7 8 9 10 11 12 13 14 15 16 17 18 19 20 21 22 23 24 25 26 27 28

000
ASUS45 KBOI 181710
RWRID

IDAHO REGIONAL WEATHER ROUNDUP
NATIONAL WEATHER SERVICE BOISE ID
1000 AM MST SAT NOV 18 2017

NOTE: "FAIR" INDICATES FEW OR NO CLOUDS BELOW 12000 FEET
WITH NO SIGNIFICANT WEATHER AND/OR OBSTRUCTIONS TO VISIBILITY

IDZ012-014-181800-
SOUTHWEST IDAHO


CITY           SKY/WX    TMP DP  RH WIND       PRES   REMARKS
BOISE          SUNNY     38  23  55 SE12      30.41S WCI  30
CALDWELL       SUNNY     37  26  64 E12       30.43S WCI  29
MOUNTAIN HOME  SUNNY     32  30  91 E12       30.42S WCI  23
$$

IDZ016-017-181800-
SOUTHCENTRAL IDAHO


CITY           SKY/WX    TMP DP  RH WIND       PRES   REMARKS
BURLEY         SUNNY     35  21  56 S10       30.41F WCI  27
JEROME         SUNNY     33  20  58 SE6       30.42S WCI  28
TWIN FALLS     SUNNY     37  19  48 S9        30.41R WCI  30
$$

IDZ019>023-181800-
SOUTHEAST IDAHO


CITY           SKY/WX    TMP DP  RH WIND       PRES   REMARKS
IDAHO FALLS    CLOUDY    28  23  81 S9        30.43S WCI  19
POCATELLO      CLOUDY    36  21  54 S9        30.43S WCI  29
REXBURG        SUNNY     29  22  75 S13G18    30.41R WCI  19
$$

IDZ006-010-011-018-031-032-181800-
CENTRAL IDAHO MOUNTAINS


CITY           SKY/WX    TMP DP  RH WIND       PRES   REMARKS
MCCALL         PTSUNNY   22  19  89 CALM      30.34R
HAILEY         MOSUNNY   23  12  63 NW9       30.40R WCI  13
STANLEY          N/A      4   1  88 CALM      30.38R
SALMON         CLOUDY    30  19  63 N6        30.39S WCI  24
CHALLIS        MOSUNNY   27  15  61 CALM      30.39R
$$

IDZ002-004-006-007-026-181800-
NORTHERN IDAHO


CITY           SKY/WX    TMP DP  RH WIND       PRES   REMARKS
LEWISTON       CLOUDY    37  32  82 CALM      30.36F
LOWELL           N/A     39  35  86 CALM      30.42F
COEUR D`ALENE  CLOUDY    37  35  92 SW3       30.32F
MULLAN PASS    LGT SNOW  23  20  88 VRB6      30.21R FOG     WCI  16
$$




USA.gov is the U.S. government's official web portal to all federal, state and local government web resources and services.